THOR ABLESTAR DEB, 408

Orbit data source: Space-Track

THOR ABLESTAR DEB, 408 is space debris in LEO originally from a launch on Thu, 29 Jun 1961 UTC launched from the Air Force Eastern Test Range (AFETR). Debris objects in space refer to the collection of defunct objects orbiting the Earth. Examples of debris include non-operational satellites, rocket bodies, and fragments generated from explosions, collisions, or faulty payload assembly.

Loading next visibility...
THOR ABLESTAR DEB details
Identifier
408, 1961-015EH
Orbit
LEO
Last TLE update11 hours ago
Origin
Flag of USUSAF SSD (US)
ManufacturerUnknown
MissionSpacecraft
Bus & MotorUnknown
MassUnknown
Launch date (UTC)
1961-06-29 (64 years ago)
Launch vehicleUnknown
Launch site
Air Force Eastern Test Range (AFETR)
Object type
Payload
Rocket body
Debris
Shape & HBRUnknown
Radar Cross SectionMedium (>0.1 m² and <1 m²)

Expand to show TLE details & history

TLE from 11 hours ago
0 THOR ABLESTAR DEB
1   408U 61015EH  25040.19218097  .00000740  00000-0  81820-3 0  9996
2   408  66.7847 205.7467 0060076  95.8066  76.4032 13.76641486238322
Epoch: 2025-02-09T04:36Z
Definitive object data (Epoch: 2025-02-09T04:36:44.435Z)
Latitude6.48101°
Longitude174.25403°
Altitude967.141 km
Speed7.374 km/s
True Right ascension01h 31m 52s
True Declination6° 26' 37"
Sunlit
Object was in daylight at TLE epoch
Visualization TLE readout
Latitude-61.06358°
Longitude-133.52784°
Altitude1,038.954 km
Speed7.312 km/s
Apparent Right ascension05h 27m 24s
Apparent Declination-51° 16' 01"
Sunlit
Object is in daylight
Visualization observer readout
Local Sidereal Time17:46:57
Azimuth164.948° S
Elevation-78.152°
Doppler factor1
Orbital elements
Apogee altitude1,018.399 km
Perigee altitude930.059 km
Semi-major axis7,352.366 km
Eccentricity0.0060076
Inclination66.7847°
RAAN205.7467°
Arg. of periapsis95.8066°
True anomaly77.07349°
Mean anomaly76.4032°
Eccentric anomaly76.73823°
Mean motion3.44273 °/min
BSTAR0.0008182
Orbital period104.57 mins
Loading maneuver chart data...

THOR ABLESTAR DEB Visibility forecast

Observer location: undefined°, undefined

Span
Click to sort rows by Start time (UTC) header in descending order
Start Az.
Max El. time (UTC)
Max El. Az.
Max El.
End time (UTC)
End Az.
7 mins2025-02-09 20:00:32.255Z5.942° NNE2025-02-09 20:03:32.255Z38.386° NE17.309°2025-02-09 20:07:32.255Z81.281° E
10 mins2025-02-09 21:47:32.255Z330.891° NNW2025-02-09 21:52:32.255Z155.69° SSE44.641°2025-02-09 21:57:32.255Z152.994° SSE
8 mins2025-02-10 11:17:32.255Z153.566° SSE2025-02-10 11:21:32.255Z103.506° ESE24.202°2025-02-10 11:25:32.255Z57.279° ENE
10 mins2025-02-10 13:03:32.255Z232.838° WSW2025-02-10 13:08:32.255Z305.33° NW37.424°2025-02-10 13:13:32.255Z16.522° NNE
|